Sitka, AK

4:47 AM AKDT on September 22, 2017 (GMT -0800)
Sitka Rocky Gutierrez

Weather History for PASI - May, 2013

Change the Weather History Date:

Sunday, May 19, 2013

  Actual Average Record
Temperature  
Mean Temperature 40 °F -  
Max Temperature 46 °F 52 °F 75 °F (1956)
Min Temperature 35 °F 41 °F 34 °F (1992)
Degree Days  
Heating Degree Days 25    
Moisture  
Dew Point 35 °F    
Average Humidity 83    
Maximum Humidity 100    
Minimum Humidity 67    
Precipitation  
Precipitation 0.14 in - - ()
Sea Level Pressure  
Sea Level Pressure 30.43 in    
Wind  
Wind Speed 8 mph (ESE)    
Max Wind Speed 15 mph    
Max Gust Speed 22 mph    
Visibility 9 miles    
Events Rain , Snow    
Averages and records for this station are not official NWS values.
T = Trace of Precipitation, MM = Missing Value Source: NWS Daily Summary

Daily Weather History Graph

Daily Weather History Graph

Search for Another Location

Airport or City:

Trip Planner

Search our weather history database for the weather conditions in past years. The results will help you decide how hot, cold, wet, or windy it might be!

Date:

Astronomy

May. 19, 2013 Rise Set
Actual Time 4:34 AM AKDT 9:22 PM AKDT
Civil Twilight 3:39 AM AKDT 10:18 PM AKDT
Nautical Twilight 2:00 AM AKDT 12:01 AM AKDT
Astronomical Twilight Sun does not set Sun does not set
Moon 2:26 PM AKDT (5/19) 2:16 AM AKDT (5/19)
Length of Visible Light 18h 38m
Length of Day
16h 48m
Waxing Gibbous, 66% of the Moon is Illuminated
May 19
Waxing Gibbous
May 24
Full
May 31
Last Quarter
Jun 8
New
Jun 16
First Quarter

Hourly Weather History & Observations

Time (AKDT) Temp. Windchill Dew Point Humidity Pressure Visibility Wind Dir Wind Speed Gust Speed Precip Events Conditions
12:09 AM 39.2 °F 30.8 °F 35.6 °F 87% 30.29 in 10.0 mi SW 15.0 mph 21.9 mph 0.00 in Rain Light Rain
12:20 AM 39.2 °F 33.0 °F 35.6 °F 87% 30.29 in 10.0 mi SW 9.2 mph - 0.00 in Rain Light Rain
12:53 AM 39.0 °F 32.3 °F 35.1 °F 86% 30.30 in 10.0 mi ENE 10.4 mph - 0.00 in   Overcast
1:53 AM 39.0 °F 33.4 °F 35.1 °F 86% 30.32 in 10.0 mi ESE 8.1 mph - N/A   Overcast
2:08 AM 39.2 °F 34.2 °F 33.8 °F 81% 30.32 in 10.0 mi East 6.9 mph - N/A   Overcast
2:30 AM 39.2 °F 34.2 °F 35.6 °F 87% 30.32 in 10.0 mi East 6.9 mph - N/A   Overcast
2:51 AM 39.2 °F 32.5 °F 35.6 °F 87% 30.34 in 10.0 mi WSW 10.4 mph 17.3 mph N/A   Overcast
2:53 AM 39.9 °F 32.9 °F 35.1 °F 83% 30.34 in 10.0 mi WSW 11.5 mph 17.3 mph N/A   Overcast
3:04 AM 41.0 °F 33.5 °F 35.6 °F 81% 30.34 in 10.0 mi West 13.8 mph - N/A   Overcast
3:53 AM 41.0 °F 34.7 °F 30.9 °F 67% 30.36 in 10.0 mi WSW 10.4 mph - N/A   Overcast
4:53 AM 39.0 °F 34.0 °F 33.1 °F 79% 30.37 in 10.0 mi East 6.9 mph - N/A   Overcast
5:44 AM 37.4 °F 28.5 °F 33.8 °F 87% 30.39 in 5.0 mi West 15.0 mph - 0.02 in Rain Ice Pellets
5:50 AM 37.4 °F 30.3 °F 33.8 °F 87% 30.39 in 1.8 mi West 10.4 mph - 0.09 in Snow Snow
5:53 AM 36.0 °F 28.5 °F 34.0 °F 93% 30.39 in 4.0 mi West 10.4 mph - 0.10 in Snow Snow
6:19 AM 35.6 °F 29.9 °F 35.6 °F 100% 30.39 in 10.0 mi NE 6.9 mph - 0.00 in   Overcast
6:53 AM 37.9 °F - 35.1 °F 89% 30.40 in 10.0 mi Calm Calm - 0.00 in   Overcast
7:03 AM 37.4 °F - 35.6 °F 93% 30.41 in 9.0 mi Calm Calm - 0.00 in Rain Light Rain
7:29 AM 37.4 °F 34.9 °F 35.6 °F 93% 30.42 in 7.0 mi Variable 3.5 mph - 0.03 in Rain , Snow Light Snow
7:44 AM 37.4 °F 32.1 °F 33.8 °F 87% 30.42 in 4.0 mi NNE 6.9 mph - 0.04 in Rain Light Rain
7:51 AM 35.6 °F 31.7 °F 33.8 °F 93% 30.42 in 10.0 mi East 4.6 mph - 0.04 in Rain Light Rain
7:53 AM 36.0 °F 32.1 °F 34.0 °F 93% 30.42 in 10.0 mi East 4.6 mph - 0.04 in Rain Light Rain
8:53 AM 39.0 °F 34.8 °F 34.0 °F 82% 30.45 in 10.0 mi SE 5.8 mph - N/A   Mostly Cloudy
9:53 AM 39.9 °F 33.9 °F 36.0 °F 86% 30.45 in 10.0 mi ESE 9.2 mph - 0.00 in   Mostly Cloudy
10:53 AM 41.0 °F 35.8 °F 35.1 °F 79% 30.46 in 10.0 mi SSE 8.1 mph - N/A   Overcast
11:53 AM 43.0 °F 38.2 °F 36.0 °F 76% 30.47 in 10.0 mi ESE 8.1 mph - N/A   Mostly Cloudy
12:53 PM 44.1 °F 40.8 °F 35.1 °F 71% 30.48 in 10.0 mi ESE 5.8 mph - N/A   Scattered Clouds
1:53 PM 45.0 °F 42.6 °F 36.0 °F 71% 30.49 in 10.0 mi Variable 4.6 mph - N/A   Mostly Cloudy
2:53 PM 44.1 °F 40.1 °F 37.0 °F 76% 30.50 in 10.0 mi WNW 6.9 mph - N/A   Mostly Cloudy
3:53 PM 44.1 °F 42.5 °F 36.0 °F 73% 30.50 in 10.0 mi Variable 3.5 mph - N/A   Mostly Cloudy
4:53 PM 44.1 °F 38.1 °F 37.0 °F 76% 30.51 in 10.0 mi West 11.5 mph - 0.00 in Rain Light Rain
5:53 PM 42.1 °F - 35.1 °F 76% 30.50 in 10.0 mi Calm Calm - 0.00 in Rain Light Rain
6:45 PM 42.8 °F 41.1 °F 35.6 °F 76% 30.50 in 10.0 mi South 3.5 mph - 0.00 in   Overcast
6:53 PM 42.1 °F 39.2 °F 37.0 °F 82% 30.50 in 10.0 mi South 4.6 mph - 0.00 in   Overcast
7:12 PM 42.8 °F 39.3 °F 35.6 °F 76% 30.50 in 10.0 mi North 5.8 mph - N/A   Overcast
7:19 PM 42.8 °F 41.1 °F 35.6 °F 76% 30.50 in 10.0 mi Variable 3.5 mph - N/A   Overcast
7:53 PM 42.1 °F 38.4 °F 35.1 °F 76% 30.50 in 10.0 mi North 5.8 mph - 0.00 in   Overcast
8:53 PM 39.9 °F 33.9 °F 35.1 °F 83% 30.50 in 10.0 mi East 9.2 mph - N/A   Overcast
9:51 PM 39.2 °F 34.2 °F 35.6 °F 87% 30.50 in 10.0 mi East 6.9 mph - N/A   Overcast
9:53 PM 39.0 °F 33.4 °F 35.1 °F 86% 30.50 in 10.0 mi East 8.1 mph - N/A   Overcast
10:11 PM 39.2 °F 35.9 °F 33.8 °F 81% 30.50 in 10.0 mi ESE 4.6 mph - N/A   Overcast
10:53 PM 39.0 °F - 35.1 °F 86% 30.51 in 10.0 mi Calm Calm - N/A   Mostly Cloudy
11:53 PM 39.0 °F - 35.1 °F 86% 30.52 in 10.0 mi Calm Calm - N/A   Mostly Cloudy